| time (UTC) | temp F | wind direction | speed MPH | gust MPH | rain 1hr in | rain 24hr in | rain mn in | humidity % | barometer mb |
| 20260504234702 | 73 | 207 | 18.0 | 20.0 | 0.00 | 0.00 | 0.00 | 49 | 1004.7 |
| 20260504234159 | 73 | 235 | 12.0 | 20.0 | 0.00 | 0.00 | 0.00 | 50 | 1004.2 |
| 20260504233654 | 73 | 209 | 11.0 | 17.0 | 0.00 | 0.00 | 0.00 | 51 | 1004.1 |
| 20260504233150 | 73 | 249 | 19.0 | 26.0 | 0.00 | 0.00 | 0.00 | 49 | 1004.1 |
| 20260504232648 | 73 | 240 | 24.0 | 27.0 | 0.00 | 0.00 | 0.00 | 48 | 1004.0 |
| 20260504232145 | 73 | 239 | 12.0 | 20.0 | 0.00 | 0.00 | 0.00 | 51 | 1004.0 |
| 20260504231642 | 74 | 245 | 16.0 | 20.0 | 0.00 | 0.00 | 0.00 | 49 | 1004.1 |
| 20260504231138 | 74 | 226 | 11.0 | 18.0 | 0.00 | 0.00 | 0.00 | 50 | 1004.1 |
| 20260504230634 | 74 | 247 | 15.0 | 22.0 | 0.00 | 0.00 | 0.00 | 49 | 1003.8 |
| 20260504230133 | 73 | 248 | 16.0 | 23.0 | 0.00 | 0.00 | 0.00 | 49 | 1003.9 |
| 20260504225631 | 73 | 208 | 13.0 | 21.0 | 0.00 | 0.00 | 0.00 | 50 | 1003.8 |
| 20260504225127 | 73 | 232 | 16.0 | 23.0 | 0.00 | 0.00 | 0.00 | 49 | 1004.1 |
| 20260504224624 | 74 | 236 | 15.0 | 24.0 | 0.00 | 0.00 | 0.00 | 50 | 1003.6 |
| 20260504224121 | 75 | 216 | 15.0 | 22.0 | 0.00 | 0.00 | 0.00 | 50 | 1003.6 |
| 20260504223618 | 74 | 237 | 18.0 | 22.0 | 0.00 | 0.00 | 0.00 | 49 | 1004.0 |
| 20260504223114 | 74 | 221 | 15.0 | 26.0 | 0.00 | 0.00 | 0.00 | 50 | 1003.8 |
| 20260504222611 | 75 | 256 | 22.0 | 26.0 | 0.00 | 0.00 | 0.00 | 46 | 1003.6 |
| 20260504222108 | 75 | 244 | 16.0 | 23.0 | 0.00 | 0.00 | 0.00 | 48 | 1003.9 |
| 20260504221605 | 75 | 243 | 13.0 | 23.0 | 0.00 | 0.00 | 0.00 | 50 | 1003.9 |
| 20260504221102 | 75 | 220 | 13.0 | 23.0 | 0.00 | 0.00 | 0.00 | 50 | 1003.9 |
| 20260504220558 | 75 | 212 | 15.0 | 17.0 | 0.00 | 0.00 | 0.00 | 51 | 1003.8 |
| 20260504220055 | 75 | 236 | 15.0 | 25.0 | 0.00 | 0.00 | 0.00 | 51 | 1003.9 |
| 20260504215552 | 74 | 221 | 14.0 | 17.0 | 0.00 | 0.00 | 0.00 | 51 | 1004.1 |
| 20260504215049 | 75 | 244 | 11.0 | 20.0 | 0.00 | 0.00 | 0.00 | 52 | 1004.0 |
| 20260504214545 | 74 | 209 | 20.0 | 25.0 | 0.00 | 0.00 | 0.00 | 52 | 1004.1 |
| 20260504214042 | 74 | 223 | 14.0 | 18.0 | 0.00 | 0.00 | 0.00 | 53 | 1004.1 |
| 20260504213538 | 74 | 251 | 13.0 | 27.0 | 0.00 | 0.00 | 0.00 | 54 | 1004.0 |
| 20260504213035 | 75 | 240 | 16.0 | 25.0 | 0.00 | 0.00 | 0.00 | 52 | 1004.1 |
| 20260504212531 | 74 | 224 | 12.0 | 18.0 | 0.00 | 0.00 | 0.00 | 53 | 1004.3 |
| 20260504212029 | 75 | 213 | 17.0 | 20.0 | 0.00 | 0.00 | 0.00 | 51 | 1004.3 |
| 20260504211525 | 74 | 251 | 18.0 | 22.0 | 0.00 | 0.00 | 0.00 | 52 | 1004.2 |
| 20260504211022 | 74 | 217 | 17.0 | 24.0 | 0.00 | 0.00 | 0.00 | 53 | 1004.3 |
| 20260504210519 | 75 | 216 | 19.0 | 24.0 | 0.00 | 0.00 | 0.00 | 51 | 1004.3 |
| 20260504210016 | 74 | 216 | 21.0 | 24.0 | 0.00 | 0.00 | 0.00 | 55 | 1004.6 |
| 20260504205514 | 74 | 205 | 19.0 | 21.0 | 0.00 | 0.00 | 0.00 | 54 | 1004.4 |
| 20260504205012 | 74 | 219 | 13.0 | 23.0 | 0.00 | 0.00 | 0.00 | 53 | 1004.7 |
| 20260504204509 | 73 | 215 | 18.0 | 24.0 | 0.00 | 0.00 | 0.00 | 53 | 1004.7 |
| 20260504204008 | 73 | 212 | 14.0 | 22.0 | 0.00 | 0.00 | 0.00 | 55 | 1004.7 |
| 20260504203506 | 74 | 211 | 13.0 | 17.0 | 0.00 | 0.00 | 0.00 | 55 | 1004.8 |
| 20260504203003 | 73 | 209 | 14.0 | 17.0 | 0.00 | 0.00 | 0.00 | 56 | 1004.9 |
| 20260504202458 | 75 | 233 | 15.0 | 21.0 | 0.00 | 0.00 | 0.00 | 55 | 1004.8 |
| 20260504201955 | 73 | 251 | 13.0 | 16.0 | 0.00 | 0.00 | 0.00 | 54 | 1005.0 |
| 20260504201453 | 73 | 224 | 14.0 | 20.0 | 0.00 | 0.00 | 0.00 | 56 | 1005.4 |
| 20260504200950 | 74 | 219 | 13.0 | 20.0 | 0.00 | 0.00 | 0.00 | 53 | 1005.3 |
| 20260504200447 | 74 | 197 | 16.0 | 21.0 | 0.00 | 0.00 | 0.00 | 54 | 1005.2 |
| 20260504195943 | 75 | 214 | 18.0 | 20.0 | 0.00 | 0.00 | 0.00 | 53 | 1005.2 |
| 20260504195439 | 74 | 226 | 14.0 | 21.0 | 0.00 | 0.00 | 0.00 | 55 | 1005.4 |
| 20260504194936 | 74 | 212 | 14.0 | 21.0 | 0.00 | 0.00 | 0.00 | 56 | 1005.3 |
| 20260504194432 | 73 | 229 | 17.0 | 21.0 | 0.00 | 0.00 | 0.00 | 55 | 1005.6 |
| 20260504193928 | 73 | 218 | 15.0 | 20.0 | 0.00 | 0.00 | 0.00 | 56 | 1005.6 |
| 20260504193425 | 74 | 197 | 11.0 | 16.0 | 0.00 | 0.00 | 0.00 | 55 | 1005.7 |
| 20260504192924 | 74 | 255 | 14.0 | 16.0 | 0.00 | 0.00 | 0.00 | 52 | 1005.6 |
| 20260504192421 | 74 | 239 | 15.0 | 18.0 | 0.00 | 0.00 | 0.00 | 53 | 1005.9 |
| 20260504191920 | 74 | 204 | 14.0 | 22.0 | 0.00 | 0.00 | 0.00 | 54 | 1005.9 |
| 20260504191418 | 73 | 209 | 11.0 | 16.0 | 0.00 | 0.00 | 0.00 | 53 | 1006.0 |
| 20260504190912 | 73 | 207 | 12.0 | 14.0 | 0.00 | 0.00 | 0.00 | 54 | 1006.1 |
| 20260504190408 | 72 | 231 | 12.0 | 18.0 | 0.00 | 0.00 | 0.00 | 52 | 1006.2 |
| 20260504185905 | 73 | 215 | 13.0 | 17.0 | 0.00 | 0.00 | 0.00 | 51 | 1006.3 |
| 20260504185403 | 73 | 225 | 15.0 | 21.0 | 0.00 | 0.00 | 0.00 | 47 | 1006.3 |
| 20260504184858 | 72 | 230 | 12.0 | 14.0 | 0.00 | 0.00 | 0.00 | 50 | 1006.3 |
| 20260504184354 | 73 | 205 | 9.0 | 15.0 | 0.00 | 0.00 | 0.00 | 51 | 1006.3 |
| 20260504183850 | 72 | 207 | 11.0 | 15.0 | 0.00 | 0.00 | 0.00 | 52 | 1006.3 |
| 20260504183348 | 73 | 220 | 11.0 | 14.0 | 0.00 | 0.00 | 0.00 | 47 | 1006.6 |
| 20260504182845 | 72 | 199 | 10.0 | 16.0 | 0.00 | 0.00 | 0.00 | 50 | 1006.4 |
| 20260504182343 | 72 | 205 | 17.0 | 23.0 | 0.00 | 0.00 | 0.00 | 46 | 1006.5 |
| 20260504181839 | 72 | 229 | 14.0 | 18.0 | 0.00 | 0.00 | 0.00 | 50 | 1006.6 |
| 20260504181337 | 72 | 229 | 11.0 | 16.0 | 0.00 | 0.00 | 0.00 | 50 | 1006.8 |
| 20260504180836 | 71 | 223 | 9.0 | 11.0 | 0.00 | 0.00 | 0.00 | 54 | 1006.9 |
| 20260504180334 | 71 | 217 | 8.0 | 11.0 | 0.00 | 0.00 | 0.00 | 56 | 1007.0 |
| 20260504175832 | 71 | 200 | 7.0 | 10.0 | 0.00 | 0.00 | 0.00 | 54 | 1006.9 |
| 20260504175328 | 71 | 212 | 10.0 | 15.0 | 0.00 | 0.00 | 0.00 | 54 | 1007.0 |
| 20260504174826 | 71 | 211 | 9.0 | 17.0 | 0.00 | 0.00 | 0.00 | 56 | 1007.0 |
| 20260504174324 | 71 | 184 | 9.0 | 11.0 | 0.00 | 0.00 | 0.00 | 55 | 1007.1 |
| 20260504173820 | 71 | 212 | 12.0 | 15.0 | 0.00 | 0.00 | 0.00 | 55 | 1007.2 |
| 20260504173317 | 71 | 226 | 14.0 | 17.0 | 0.00 | 0.00 | 0.00 | 52 | 1007.2 |
| 20260504172814 | 70 | 224 | 11.0 | 13.0 | 0.00 | 0.00 | 0.00 | 51 | 1007.1 |
| 20260504172311 | 70 | 217 | 9.0 | 11.0 | 0.00 | 0.00 | 0.00 | 55 | 1007.4 |
| 20260504171807 | 70 | 205 | 10.0 | 17.0 | 0.00 | 0.00 | 0.00 | 54 | 1007.3 |
| 20260504171304 | 70 | 225 | 8.0 | 17.0 | 0.00 | 0.00 | 0.00 | 54 | 1007.6 |
| 20260504170801 | 70 | 220 | 12.0 | 17.0 | 0.00 | 0.00 | 0.00 | 55 | 1007.7 |
| 20260504170258 | 70 | 213 | 9.0 | 14.0 | 0.00 | 0.00 | 0.00 | 58 | 1007.7 |
| 20260504160216 | 67 | 220 | 9.0 | 14.0 | 0.00 | 0.00 | 0.00 | 63 | 1008.4 |
| 20260504151144 | 64 | 217 | 7.0 | 13.0 | 0.00 | 0.00 | 0.00 | 64 | 1008.9 |
| 20260504150641 | 64 | 237 | 13.0 | 14.0 | 0.00 | 0.00 | 0.00 | 64 | 1008.6 |
| 20260504150138 | 64 | 205 | 7.0 | 10.0 | 0.00 | 0.00 | 0.00 | 65 | 1008.8 |
| 20260504141107 | 61 | 229 | 11.0 | 13.0 | 0.00 | 0.00 | 0.00 | 66 | 1009.1 |
| 20260504140604 | 60 | 219 | 12.0 | 17.0 | 0.00 | 0.00 | 0.00 | 67 | 1009.0 |
| 20260504130528 | 57 | 216 | 12.0 | 14.0 | 0.00 | 0.00 | 0.00 | 69 | 1009.6 |
| 20260504110415 | 50 | 202 | 7.0 | 9.0 | 0.00 | 0.00 | 0.00 | 76 | 1009.4 |
| 20260504100332 | 49 | 225 | 7.0 | 8.0 | 0.00 | 0.00 | 0.00 | 76 | 1009.2 |
| 20260504081726 | 50 | 208 | 8.0 | 10.0 | 0.00 | 0.00 | 0.00 | 72 | 1009.8 |
| 20260504081222 | 50 | 205 | 11.0 | 13.0 | 0.00 | 0.00 | 0.00 | 72 | 1010.2 |
| 20260504080718 | 50 | 209 | 9.0 | 11.0 | 0.00 | 0.00 | 0.00 | 71 | 1010.1 |
| 20260504080215 | 51 | 214 | 9.0 | 14.0 | 0.00 | 0.00 | 0.00 | 71 | 1010.2 |
| 20260504070142 | 50 | 217 | 9.0 | 10.0 | 0.00 | 0.00 | 0.00 | 70 | 1010.8 |
| 20260504050531 | 51 | 202 | 8.0 | 10.0 | 0.00 | 0.00 | 0.00 | 68 | 1012.5 |
| 20260504045525 | 51 | 219 | 8.0 | 11.0 | 0.00 | 0.00 | 0.00 | 67 | 1012.4 |
| 20260504045020 | 51 | 197 | 8.0 | 9.0 | 0.00 | 0.00 | 0.00 | 68 | 1012.4 |
| 20260504044518 | 51 | 219 | 8.0 | 9.0 | 0.00 | 0.00 | 0.00 | 67 | 1012.5 |
| 20260504044015 | 52 | 223 | 8.0 | 11.0 | 0.00 | 0.00 | 0.00 | 67 | 1012.6 |
| 20260504043512 | 51 | 209 | 9.0 | 10.0 | 0.00 | 0.00 | 0.00 | 68 | 1012.6 |
| 20260504043009 | 52 | 213 | 9.0 | 11.0 | 0.00 | 0.00 | 0.00 | 66 | 1012.5 |
| 20260504042506 | 52 | 211 | 9.0 | 13.0 | 0.00 | 0.00 | 0.00 | 66 | 1012.6 |
| 20260504042003 | 52 | 210 | 8.0 | 11.0 | 0.00 | 0.00 | 0.00 | 67 | 1012.6 |
| 20260504041459 | 52 | 215 | 7.0 | 10.0 | 0.00 | 0.00 | 0.00 | 66 | 1012.8 |
| 20260504040955 | 51 | 206 | 8.0 | 11.0 | 0.00 | 0.00 | 0.00 | 67 | 1012.8 |
| 20260504040453 | 51 | 196 | 6.0 | 10.0 | 0.00 | 0.00 | 0.00 | 67 | 1012.9 |
| 20260504035948 | 51 | 204 | 6.0 | 9.0 | 0.00 | 0.00 | 0.00 | 68 | 1012.8 |
| 20260504035446 | 51 | 204 | 7.0 | 10.0 | 0.00 | 0.00 | 0.00 | 68 | 1012.9 |
| 20260504034942 | 51 | 202 | 5.0 | 8.0 | 0.00 | 0.00 | 0.00 | 69 | 1012.8 |
| 20260504034440 | 51 | 196 | 5.0 | 8.0 | 0.00 | 0.00 | 0.00 | 70 | 1012.9 |
| 20260504033937 | 51 | 213 | 7.0 | 10.0 | 0.00 | 0.00 | 0.00 | 69 | 1013.0 |
| 20260504033435 | 51 | 195 | 7.0 | 8.0 | 0.00 | 0.00 | 0.00 | 70 | 1013.2 |
| 20260504032932 | 51 | 217 | 7.0 | 10.0 | 0.00 | 0.00 | 0.00 | 70 | 1013.2 |
| 20260504032428 | 51 | 205 | 6.0 | 9.0 | 0.00 | 0.00 | 0.00 | 70 | 1013.4 |
| 20260504031925 | 51 | 221 | 7.0 | 10.0 | 0.00 | 0.00 | 0.00 | 70 | 1013.4 |
| 20260504031422 | 51 | 210 | 5.0 | 10.0 | 0.00 | 0.00 | 0.00 | 71 | 1013.3 |
| 20260504030919 | 51 | 206 | 7.0 | 9.0 | 0.00 | 0.00 | 0.00 | 71 | 1013.4 |
| 20260504030416 | 50 | 203 | 6.0 | 8.0 | 0.00 | 0.00 | 0.00 | 72 | 1013.3 |
| 20260504025912 | 50 | 200 | 5.0 | 8.0 | 0.00 | 0.00 | 0.00 | 72 | 1013.6 |
| 20260504025409 | 50 | 197 | 5.0 | 8.0 | 0.00 | 0.00 | 0.00 | 71 | 1013.6 |
| 20260504024906 | 50 | 212 | 6.0 | 8.0 | 0.00 | 0.00 | 0.00 | 72 | 1013.7 |
| 20260504024403 | 50 | 198 | 4.0 | 7.0 | 0.00 | 0.00 | 0.00 | 74 | 1013.6 |
| 20260504023900 | 50 | 195 | 5.0 | 7.0 | 0.00 | 0.00 | 0.00 | 73 | 1013.7 |
| 20260504023356 | 50 | 203 | 2.0 | 5.0 | 0.00 | 0.00 | 0.00 | 74 | 1013.7 |
| 20260504022852 | 50 | 186 | 5.0 | 6.0 | 0.00 | 0.00 | 0.00 | 74 | 1013.9 |
| 20260504022349 | 49 | 204 | 2.0 | 3.0 | 0.00 | 0.00 | 0.00 | 74 | 1013.9 |
| 20260504021845 | 50 | 219 | 4.0 | 6.0 | 0.00 | 0.00 | 0.00 | 74 | 1013.8 |
| 20260504021342 | 49 | 207 | 4.0 | 5.0 | 0.00 | 0.00 | 0.00 | 74 | 1013.8 |
| 20260504020839 | 50 | 205 | 5.0 | 6.0 | 0.00 | 0.00 | 0.00 | 73 | 1013.9 |
| 20260504020336 | 50 | 211 | 4.0 | 5.0 | 0.00 | 0.00 | 0.00 | 74 | 1014.0 |
| 20260504015832 | 50 | 199 | 3.0 | 5.0 | 0.00 | 0.00 | 0.00 | 73 | 1013.9 |
| 20260504015328 | 50 | 212 | 3.0 | 6.0 | 0.00 | 0.00 | 0.00 | 73 | 1013.9 |
| 20260504014825 | 50 | 207 | 4.0 | 6.0 | 0.00 | 0.00 | 0.00 | 73 | 1013.8 |
| 20260504014321 | 50 | 204 | 4.0 | 5.0 | 0.00 | 0.00 | 0.00 | 73 | 1013.9 |
| 20260504013819 | 51 | 203 | 4.0 | 7.0 | 0.00 | 0.00 | 0.00 | 72 | 1014.0 |
| 20260504013316 | 50 | 212 | 5.0 | 6.0 | 0.00 | 0.00 | 0.00 | 73 | 1014.0 |
| 20260504012813 | 51 | 211 | 5.0 | 7.0 | 0.00 | 0.00 | 0.00 | 73 | 1014.0 |
| 20260504012311 | 51 | 210 | 6.0 | 6.0 | 0.00 | 0.00 | 0.00 | 73 | 1013.8 |
| 20260504011808 | 51 | 208 | 4.0 | 6.0 | 0.00 | 0.00 | 0.00 | 74 | 1013.9 |
| 20260504011304 | 51 | 206 | 4.0 | 6.0 | 0.00 | 0.00 | 0.00 | 73 | 1014.1 |
| 20260504010800 | 51 | 208 | 5.0 | 6.0 | 0.00 | 0.00 | 0.00 | 74 | 1014.0 |
| 20260504010256 | 51 | 217 | 4.0 | 7.0 | 0.00 | 0.00 | 0.00 | 74 | 1014.1 |
| 20260504005753 | 51 | 214 | 7.0 | 9.0 | 0.00 | 0.00 | 0.00 | 73 | 1014.0 |
| 20260504005250 | 51 | 216 | 7.0 | 8.0 | 0.00 | 0.00 | 0.00 | 73 | 1014.2 |
| 20260504004747 | 51 | 213 | 5.0 | 8.0 | 0.00 | 0.00 | 0.00 | 72 | 1014.3 |
| 20260504004244 | 51 | 212 | 7.0 | 10.0 | 0.00 | 0.00 | 0.00 | 71 | 1014.1 |
| 20260504003741 | 51 | 224 | 8.0 | 9.0 | 0.00 | 0.00 | 0.00 | 71 | 1014.3 |
| 20260504003238 | 51 | 221 | 5.0 | 8.0 | 0.00 | 0.00 | 0.00 | 71 | 1014.2 |
| 20260504002734 | 51 | 210 | 7.0 | 10.0 | 0.00 | 0.00 | 0.00 | 70 | 1014.0 |
| 20260504002231 | 52 | 217 | 10.0 | 11.0 | 0.00 | 0.00 | 0.00 | 69 | 1014.2 |
| 20260504001729 | 52 | 207 | 7.0 | 8.0 | 0.00 | 0.00 | 0.00 | 70 | 1014.2 |
| 20260504001226 | 52 | 235 | 7.0 | 13.0 | 0.00 | 0.00 | 0.00 | 69 | 1014.2 |
| 20260504000723 | 52 | 221 | 8.0 | 11.0 | 0.00 | 0.00 | 0.00 | 69 | 1014.3 |
| 20260504000219 | 52 | 207 | 11.0 | 14.0 | 0.00 | 0.00 | 0.00 | 68 | 1014.3 |
| 20260503235718 | 52 | 196 | 9.0 | 14.0 | 0.00 | 0.00 | 0.00 | 68 | 1014.5 |
| 20260503235215 | 52 | 239 | 9.0 | 10.0 | 0.00 | 0.00 | 0.00 | 69 | 1014.6 |